Location: Voyageurs National Park
(48.5020°N, 92.9292°W)
Time: 11:49:01
(UTC-05:00)

Amateur Radio Satellites - All Passes

Search period start: 06 May 2016 11:19
Search period end: 07 May 2016 11:19
Location: Voyageurs National Park, 48.5020°N, 92.9292°W

Satellite Date Start Highest point End Downlink Frequencies (MHz)
Time Altitude Azimuth
PHONESAT 2.4 06 May 11:23:56 11:26:15 19° 182° (S) 11:28:36 2401.200-2431.200
HUMSAT D 06 May 11:24:33 11:28:34 54° 101° (E) 11:32:34 437.325/437.525
Oscar 11 06 May 11:30:14 11:34:08 34° 292° (WNW) 11:38:02 145.826/435.025
SO-50 06 May 11:36:43 11:38:34 12° 3° (N) 11:40:24 436.795
GONETS M04 06 May 11:39:41 11:48:29 74° 78° (ENE) 11:57:11
JAS-2 06 May 11:40:31 11:45:30 24° 52° (NE) 11:50:53 435.910
ISS 06 May 11:41:44 11:45:00 86° 202° (SSW) 11:48:16 145.825
50 SAT 06 May 11:42:05 11:43:45 13° 90° (E) 11:45:25 437.505
COMPASS 1 06 May 11:47:33 11:47:54 10° 304° (NW) 11:48:15 437.405
FUNcube-1 06 May 11:47:55 11:51:27 27° 295° (WNW) 11:54:58 145.935
DUCHIFAT 1 06 May 11:48:06 11:52:23 90° 330° (NNW) 11:56:40 145.980
AO-85 06 May 11:51:34 11:56:16 30° 115° (ESE) 12:00:55 145.980
AIST 1 06 May 11:53:22 11:57:44 61° 265° (W) 12:02:04
QB50P2 06 May 11:54:11 11:58:28 69° 258° (WSW) 12:02:46 145.880/145.840
POLYITAN 1 06 May 11:56:24 12:00:40 68° 258° (WSW) 12:04:59 437.675
POPSAT HIP 1 06 May 11:57:54 12:02:10 67° 258° (WSW) 12:06:27 437.405
AISAT 06 May 11:59:50 12:03:16 21° 92° (E) 12:06:40 437.250
QB50P1 06 May 12:00:46 12:05:01 62° 259° (WSW) 12:09:16 145.935-145.965
UNISAT 6 06 May 12:07:05 12:09:42 15° 271° (W) 12:12:18 437.425
UWE-3 06 May 12:12:18 12:14:06 12° 303° (WNW) 12:15:51 435.000/436.395/437.385
BUGSAT 1 06 May 12:13:07 12:17:23 84° 72° (ENE) 12:21:40 437.445
TIGRISAT 06 May 12:24:49 12:26:00 11° 274° (W) 12:27:11 435.000
CUBEBUG 1 06 May 12:24:53 12:28:58 35° 97° (E) 12:33:01 437.445
NANOSAT C BR1 06 May 12:33:56 12:37:43 30° 264° (W) 12:41:31 145.865
Oscar 19 06 May 12:33:59 12:38:18 27° 61° (ENE) 12:42:38 437.125/150
ESTCUBE 1 06 May 12:34:08 12:38:38 59° 101° (ESE) 12:43:07 437.505/2401.250
ZACube-1 06 May 12:34:26 12:35:30 11° 304° (NW) 12:36:35 437.345
HO-68 06 May 12:36:55 12:39:32 12° 321° (NW) 12:42:10 435.675
UKube-1 06 May 12:44:46 12:48:52 39° 98° (E) 12:52:55 .
DX 1 06 May 12:45:44 12:50:01 48° 100° (E) 12:54:15 434.975-435.025
Cosmos 2499 06 May 12:49:08 12:56:54 78° 264° (W) 13:05:16 435.465 / 435.565
DELFI C3 06 May 12:54:50 12:55:11 10° 303° (WNW) 12:55:33 145.870
PHONESAT 2.4 06 May 13:01:05 13:02:26 12° 198° (SSW) 13:03:46 2401.200-2431.200
HUMSAT D 06 May 13:01:08 13:03:51 17° 298° (WNW) 13:06:32 437.325/437.525
Gurwin Techsat 1B 06 May 13:01:18 13:05:17 22° 59° (ENE) 13:09:17 435.225
VELOX 1 06 May 13:02:48 13:07:19 81° 105° (ESE) 13:11:46 145.980
SPROUT 06 May 13:07:06 13:11:07 37° 97° (E) 13:15:06 437.525
50 SAT 06 May 13:14:18 13:17:54 56° 288° (WNW) 13:21:29 437.505
SO-50 06 May 13:17:14 13:20:53 21° 28° (NNE) 13:24:28 436.795
ISS 06 May 13:18:45 13:21:06 18° 221° (SW) 13:23:26 145.825
JAS-2 06 May 13:23:17 13:29:35 86° 254° (WSW) 13:36:48 435.910
TISAT 1 06 May 13:26:37 13:29:41 19° 92° (E) 13:32:43 437.305
DUCHIFAT 1 06 May 13:28:06 13:28:43 10° 274° (W) 13:29:21 145.980
AO-85 06 May 13:31:10 13:36:34 58° 314° (NW) 13:41:50 145.980
AISAT 06 May 13:35:41 13:40:01 47° 290° (WNW) 13:44:17 437.250
GONETS M04 06 May 13:37:27 13:44:30 29° 280° (W) 13:51:32
BUGSAT 1 06 May 13:52:04 13:53:21 11° 273° (W) 13:54:39 437.445
ITAMSAT 1 06 May 14:01:18 14:05:44 30° 62° (ENE) 14:10:12 435.822/435.867
CUBEBUG 1 06 May 14:01:20 14:05:10 29° 295° (WNW) 14:08:59 437.445
AO-7 06 May 14:04:33 14:11:20 29° 49° (NE) 14:18:08 29.400- 29.500
ESTCUBE 1 06 May 14:11:49 14:15:03 19° 299° (WNW) 14:18:16 437.505/2401.250
Oscar 19 06 May 14:12:21 14:17:21 50° 260° (W) 14:22:27 437.125/150
UKube-1 06 May 14:21:09 14:24:45 25° 296° (WNW) 14:28:19 .
BEESAT 06 May 14:21:58 14:24:48 16° 89° (E) 14:27:39 436.000
DX 1 06 May 14:22:33 14:25:55 22° 298° (WNW) 14:29:16 434.975-435.025
PCSat 06 May 14:28:16 14:32:06 20° 107° (ESE) 14:35:57 145.827
Gurwin Techsat 1B 06 May 14:39:30 14:44:47 67° 258° (WSW) 14:50:06 435.225
VELOX 1 06 May 14:40:43 14:43:11 15° 302° (WNW) 14:45:39 145.980
O/OREOS (USA 219) 06 May 14:43:04 14:47:35 60° 111° (ESE) 14:52:07 437.305
SPROUT 06 May 14:43:22 14:46:56 26° 295° (WNW) 14:50:28 437.525
Cosmos 2499 06 May 14:44:07 14:48:51 17° 284° (WNW) 14:53:46 435.465 / 435.565
CUSAT 1 06 May 14:49:58 14:53:40 36° 89° (E) 14:58:29 437.405
SO-50 06 May 14:57:20 15:02:09 79° 49° (NE) 15:06:46 436.795
TISAT 1 06 May 15:01:31 15:05:36 47° 290° (WNW) 15:09:38 437.305
JAS-2 06 May 15:11:46 15:15:52 17° 278° (W) 15:20:16 435.910
AO-85 06 May 15:14:14 15:18:08 20° 335° (NNW) 15:21:55 145.980
ITUPSAT 1 06 May 15:18:31 15:23:10 49° 100° (E) 15:27:48 437.325
SWISSCUBE 06 May 15:25:37 15:30:23 64° 102° (ESE) 15:35:07 437.505
ITAMSAT 1 06 May 15:40:07 15:45:03 44° 261° (W) 15:50:01 435.822/435.867
HORYU 2 06 May 15:48:46 15:52:09 22° 62° (ENE) 15:55:33 437.375
MOZHAYETS 4 06 May 15:53:54 15:55:39 12° 87° (E) 15:57:23
AO-7 06 May 15:55:00 16:03:18 84° 251° (WSW) 16:11:40 29.400- 29.500
BEESAT 06 May 15:58:22 16:03:08 72° 287° (WNW) 16:07:52 436.000
PCSat 06 May 16:09:29 16:14:55 76° 306° (NW) 16:20:23 145.827
DANDE 06 May 16:10:39 16:13:57 87° 286° (WNW) 16:18:21 436.750
O/OREOS (USA 219) 06 May 16:23:49 16:27:23 22° 312° (NW) 16:30:58 437.305
NOAA 15 06 May 16:30:25 16:33:21 15° 53° (NE) 16:36:19 137.62
CUSAT 1 06 May 16:32:18 16:35:58 27° 298° (WNW) 16:40:36 437.405
SO-50 06 May 16:39:04 16:42:01 17° 250° (WSW) 16:44:55 436.795
Cubesat XI-IV 06 May 16:47:47 16:50:36 15° 53° (NE) 16:53:26 437.490
NOAA 18 06 May 16:49:13 16:53:07 20° 56° (NE) 16:57:03 137.9125
Cosmos 2491 06 May 16:49:13 16:57:15 37° 65° (ENE) 17:05:11 435.465 / 435.565
KKS-1 06 May 16:55:05 16:59:33 64° 102° (ESE) 17:03:58 437.445
ITUPSAT 1 06 May 16:56:55 17:00:45 24° 298° (WNW) 17:04:33 437.325
AO-85 06 May 16:58:20 17:00:38 13° 360° (N) 17:02:52 145.980
STARS 06 May 17:00:23 17:04:33 39° 98° (E) 17:08:39 437.465
SWISSCUBE 06 May 17:04:21 17:07:44 20° 301° (WNW) 17:11:07 437.505
YUBILEINY 06 May 17:08:41 17:13:12 15° 71° (ENE) 17:17:42 435.215
HORYU 2 06 May 17:24:05 17:28:26 50° 260° (W) 17:32:47 437.375
M-CUBED/EXP-1 PRIME 06 May 17:27:53 17:30:23 15° 52° (NE) 17:32:50 437.505
MOZHAYETS 4 06 May 17:28:52 17:33:28 87° 290° (WNW) 17:38:04
BEESAT 06 May 17:38:20 17:40:05 12° 307° (NW) 17:41:50 436.000
CUTE-I 06 May 17:39:26 17:44:11 35° 64° (ENE) 17:48:58 437.470
AUBIESAT-1 06 May 17:42:27 17:45:11 16° 53° (NE) 17:47:52 437.475
BRITE-PL 06 May 17:43:55 17:48:29 34° 64° (ENE) 17:53:22 437.365/2234.400
HO-68 06 May 17:48:59 17:52:05 13° 41° (NE) 17:55:10 435.675
CUBESAT XI-V 06 May 17:49:04 17:52:42 22° 91° (E) 17:56:19 437.345
AO-7 06 May 17:51:31 17:57:17 20° 272° (W) 18:03:07 29.400- 29.500
BEESAT 3 06 May 17:54:59 17:58:36 36° 120° (ESE) 18:02:16 437.485
PCSat 06 May 17:55:10 17:59:14 21° 328° (NNW) 18:03:18 145.827
NOAA 15 06 May 18:07:03 18:12:20 81° 73° (ENE) 18:17:41 137.62
DOVE 4 06 May 18:09:33 18:13:07 19° 58° (ENE) 18:16:43 437.250
BEESAT 2 06 May 18:10:42 18:14:16 32° 119° (ESE) 18:17:51 435.950
LilacSat-2 06 May 18:20:34 18:24:24 60° 72° (ENE) 18:28:13 437.200
Cubesat XI-IV 06 May 18:24:32 18:29:51 78° 73° (ENE) 18:35:12 437.490
NOAA 18 06 May 18:27:42 18:33:13 78° 255° (WSW) 18:38:45 137.9125
KKS-1 06 May 18:32:41 18:35:40 18° 301° (WNW) 18:38:38 437.445
GOMX 1 06 May 18:33:14 18:38:13 48° 68° (ENE) 18:43:28 467.674
STARS 06 May 18:37:05 18:40:45 26° 296° (WNW) 18:44:22 437.465
AO-85 06 May 18:39:27 18:43:06 19° 24° (NNE) 18:46:33 145.980
CANX-2 06 May 18:44:48 18:45:44 11° 56° (ENE) 18:46:39 2200.000
Cosmos 2491 06 May 18:45:59 18:54:37 61° 268° (W) 19:03:10 435.465 / 435.565
M-CUBED/EXP-1 PRIME 06 May 18:59:36 19:04:19 83° 69° (ENE) 19:08:52 437.505
YUBILEINY 06 May 18:59:39 19:08:16 69° 94° (E) 19:16:54 435.215
MOZHAYETS 4 06 May 19:07:50 19:09:56 13° 304° (WNW) 19:12:04
STRAND 1 06 May 19:13:58 19:16:51 15° 88° (E) 19:19:43 437.568
AUBIESAT-1 06 May 19:14:31 19:19:09 85° 249° (WSW) 19:23:38 437.475
CUTE 1.7 + AOD 2 06 May 19:14:32 19:17:24 18° 62° (ENE) 19:20:16 437.475
CUTE-I 06 May 19:19:14 19:24:11 39° 263° (W) 19:29:10 437.470
BRITE-PL 06 May 19:22:09 19:26:52 39° 265° (W) 19:31:57 437.365/2234.400
CUBESAT XI-V 06 May 19:25:48 19:30:22 51° 290° (WNW) 19:34:55 437.345
COMPASS 1 06 May 19:29:51 19:32:05 14° 60° (ENE) 19:34:20 437.405
HO-68 06 May 19:31:23 19:38:11 49° 63° (ENE) 19:44:59 435.675
BEESAT 3 06 May 19:32:48 19:36:21 31° 319° (NW) 19:39:57 437.485
SEEDS 06 May 19:33:35 19:36:40 20° 63° (ENE) 19:39:46 437.485
PCSat 06 May 19:43:31 19:44:52 11° 354° (N) 19:46:13 145.827
DOVE 4 06 May 19:44:56 19:50:09 81° 256° (WSW) 19:55:32 437.250
Cosmos 2504 06 May 19:46:12 19:52:31 35° 86° (E) 19:58:52 435.465 / 435.565
BEESAT 2 06 May 19:48:25 19:52:06 35° 318° (NW) 19:55:48 435.950
NOAA 15 06 May 19:49:34 19:52:46 16° 272° (W) 19:56:00 137.62
AAUSAT CUBESAT 2 06 May 19:55:21 19:58:24 20° 63° (ENE) 20:01:27 437.432
CINEMA 3 06 May 19:56:45 20:01:36 51° 70° (ENE) 20:06:23 145.822/145.860
LilacSat-2 06 May 19:57:11 19:59:05 13° 271° (W) 20:00:59 437.200
UWE-3 06 May 20:00:00 20:02:40 16° 60° (ENE) 20:05:18 435.000/436.395/437.385
Cubesat XI-IV 06 May 20:07:09 20:10:32 17° 271° (W) 20:13:57 437.490
GOMX 1 06 May 20:12:01 20:16:30 28° 268° (W) 20:21:11 467.674
NOAA 18 06 May 20:12:35 20:14:47 12° 274° (W) 20:16:59 137.9125
CUBEBUG 2 06 May 20:15:17 20:19:15 28° 65° (ENE) 20:23:10 437.445
CANX-2 06 May 20:16:39 20:20:52 79° 74° (ENE) 20:25:06 2200.000
AIST 2 06 May 20:17:44 20:21:43 48° 122° (ESE) 20:25:43 435.215
AO-85 06 May 20:19:40 20:24:36 65° 48° (NE) 20:29:04 145.980
ZACube-1 06 May 20:20:30 20:23:17 17° 60° (ENE) 20:26:02 437.345
PRISM 06 May 20:29:58 20:32:19 14° 90° (E) 20:34:39 437.425
RS-15 06 May 20:32:29 20:42:01 33° 104° (ESE) 20:51:57 29.354- 29.394
DELFI C3 06 May 20:34:43 20:36:02 11° 58° (ENE) 20:37:20 145.870
M-CUBED/EXP-1 PRIME 06 May 20:36:53 20:39:20 14° 266° (W) 20:41:44 437.505
Cosmos 2491 06 May 20:45:49 20:49:29 13° 291° (WNW) 20:53:09 435.465 / 435.565
CUTE 1.7 + AOD 2 06 May 20:48:45 20:52:52 55° 260° (W) 20:57:02 437.475
STRAND 1 06 May 20:51:32 20:56:41 82° 286° (WNW) 21:01:48 437.568
Oscar 11 06 May 20:52:28 20:56:20 34° 68° (ENE) 21:00:14 145.826/435.025
AUBIESAT-1 06 May 20:52:38 20:54:11 12° 267° (W) 20:55:44 437.475
YUBILEINY 06 May 20:58:12 21:05:48 32° 297° (WNW) 21:13:27 435.215
COMPASS 1 06 May 21:03:02 21:07:09 70° 258° (WSW) 21:11:18 437.405
SEEDS 06 May 21:08:05 21:12:06 46° 261° (W) 21:16:08 437.485
FUNcube-1 06 May 21:10:10 21:14:22 42° 70° (ENE) 21:18:31 145.935
BEESAT 3 06 May 21:14:49 21:15:17 10° 342° (NNW) 21:15:44 437.485
HO-68 06 May 21:19:23 21:26:02 40° 263° (W) 21:32:43 435.675
DOVE 4 06 May 21:26:23 21:28:41 13° 276° (W) 21:31:00 437.250
PCSat 06 May 21:27:48 21:30:47 15° 21° (NNE) 21:33:46 145.827
AAUSAT CUBESAT 2 06 May 21:29:41 21:33:37 45° 262° (W) 21:37:36 437.432
BEESAT 2 06 May 21:30:00 21:31:06 11° 340° (NNW) 21:32:12 435.950
UWE-3 06 May 21:34:01 21:38:37 77° 258° (WSW) 21:43:07 435.000/436.395/437.385
CINEMA 3 06 May 21:34:55 21:38:58 24° 268° (W) 21:43:00 145.822/145.860
Cosmos 2504 06 May 21:38:44 21:45:39 50° 287° (WNW) 21:52:40 435.465 / 435.565
CUBEBUG 2 06 May 21:51:21 21:55:44 39° 263° (W) 22:00:04 437.445
ZACube-1 06 May 21:54:38 21:59:07 68° 258° (WSW) 22:03:31 437.345
CANX-2 06 May 21:55:51 21:57:18 11° 273° (W) 21:58:44 2200.000
AIST 2 06 May 21:56:49 22:00:24 28° 322° (NW) 22:04:01 435.215
AO-85 06 May 22:01:06 22:04:33 20° 249° (WSW) 22:07:47 145.980
ESTCUBE 1 06 May 22:03:36 22:05:29 12° 56° (NE) 22:07:22 437.505/2401.250
PRISM 06 May 22:03:54 22:08:02 63° 288° (WNW) 22:12:11 437.425
DELFI C3 06 May 22:06:20 22:10:18 85° 260° (W) 22:14:16 145.870
DX 1 06 May 22:13:20 22:13:33 10° 53° (NE) 22:13:44 434.975-435.025
UNISAT 6 06 May 22:18:42 22:19:30 10° 86° (E) 22:20:18 437.425
HUMSAT D 06 May 22:19:07 22:23:16 61° 72° (ENE) 22:27:22 437.325/437.525
50 SAT 06 May 22:25:09 22:26:30 12° 60° (ENE) 22:27:51 437.505
Oscar 11 06 May 22:28:49 22:32:31 28° 265° (W) 22:36:14 145.826/435.025
VELOX 1 06 May 22:29:20 22:32:01 16° 58° (ENE) 22:34:43 145.980
STRAND 1 06 May 22:32:20 22:35:05 15° 306° (NW) 22:37:52 437.568
TIGRISAT 06 May 22:33:16 22:35:39 14° 89° (E) 22:37:59 435.000
RS-15 06 May 22:41:43 22:53:11 84° 310° (NW) 23:05:21 29.354- 29.394
FUNcube-1 06 May 22:47:13 22:50:47 23° 267° (W) 22:54:18 145.935
GONETS M04 06 May 22:53:11 22:58:20 17° 72° (ENE) 23:03:28
ANTELSAT 06 May 22:58:27 23:02:07 26° 94° (E) 23:05:44 437.575/2403.000
AISAT 06 May 23:00:36 23:04:29 30° 65° (ENE) 23:08:25 437.250
O/OREOS (USA 219) 06 May 23:10:22 23:14:24 30° 53° (NE) 23:18:24 437.305
PCSat 06 May 23:10:33 23:15:42 41° 45° (NE) 23:20:49 145.827
CUBEBUG 1 06 May 23:24:11 23:28:23 46° 70° (ENE) 23:32:38 437.445
DUCHIFAT 1 06 May 23:30:53 23:32:05 11° 87° (E) 23:33:17 145.980
QB50P2 06 May 23:36:38 23:39:06 15° 89° (E) 23:41:35 145.880/145.840
CUSAT 1 06 May 23:37:03 23:40:35 14° 51° (NE) 23:44:16 437.405
ESTCUBE 1 06 May 23:37:05 23:41:34 84° 75° (ENE) 23:46:06 437.505/2401.250
POLYITAN 1 06 May 23:38:50 23:41:21 15° 90° (E) 23:43:50 437.675
Cosmos 2504 06 May 23:39:50 23:41:14 11° 313° (NW) 23:42:37 435.465 / 435.565
AIST 2 06 May 23:39:51 23:40:16 10° 345° (NNW) 23:40:40 435.215
POPSAT HIP 1 06 May 23:40:09 23:42:41 15° 90° (E) 23:45:12 437.405
Cosmos 2499 06 May 23:42:10 23:45:44 15° 74° (ENE) 23:49:21 435.465 / 435.565
UKube-1 06 May 23:42:38 23:46:51 54° 71° (ENE) 23:51:06 .
QB50P1 06 May 23:42:46 23:45:31 17° 90° (E) 23:48:14 145.935-145.965
DX 1 06 May 23:44:34 23:48:54 68° 73° (ENE) 23:53:17 434.975-435.025
UNISAT 6 06 May 23:52:33 23:56:55 88° 283° (WNW) 00:01:10 437.425
50 SAT 06 May 23:56:10 23:59:47 70° 257° (WSW) 00:03:26 437.505
HUMSAT D 06 May 23:56:55 23:59:17 15° 270° (W) 00:01:39 437.325/437.525
VELOX 1 07 May 00:03:31 00:07:58 73° 258° (WSW) 00:12:27 145.980
SPROUT 07 May 00:04:02 00:08:10 46° 70° (ENE) 00:12:19 437.525
TIGRISAT 07 May 00:08:32 00:12:50 65° 287° (WNW) 00:17:02 435.000
NANOSAT C BR1 07 May 00:14:12 00:18:02 32° 96° (E) 00:21:48 145.865
TISAT 1 07 May 00:21:44 00:25:11 24° 64° (ENE) 00:28:39 437.305
AIST 1 07 May 00:26:07 00:30:24 64° 96° (E) 00:34:45
JAS-2 07 May 00:29:51 00:34:19 16° 81° (E) 00:38:45 435.910
BEESAT 3 07 May 00:31:41 00:34:16 16° 30° (NNE) 00:36:50 437.485
ANTELSAT 07 May 00:34:59 00:38:55 34° 293° (WNW) 00:42:47 437.575/2403.000
AISAT 07 May 00:36:52 00:40:55 33° 264° (W) 00:45:01 437.250
GONETS M04 07 May 00:44:46 00:53:33 74° 95° (E) 01:02:21
BEESAT 2 07 May 00:47:56 00:50:26 16° 29° (NNE) 00:52:55 435.950
O/OREOS (USA 219) 07 May 00:49:43 00:53:52 36° 253° (WSW) 00:57:58 437.305
ITUPSAT 1 07 May 00:54:01 00:56:26 14° 55° (NE) 00:58:51 437.325
PCSat 07 May 00:54:04 00:59:08 41° 246° (WSW) 01:04:10 145.827
RS-15 07 May 00:56:37 01:07:33 42° 340° (NNW) 01:18:59 29.354- 29.394
DANDE 07 May 00:59:43 01:05:02 24° 63° (ENE) 01:11:06 436.750
SWISSCUBE 07 May 01:00:08 01:03:12 17° 58° (ENE) 01:06:15 437.505
CUBEBUG 1 07 May 01:01:31 01:04:54 21° 268° (W) 01:08:19 437.445
DUCHIFAT 1 07 May 01:04:09 01:08:23 83° 288° (WNW) 01:12:35 145.980
QB50P2 07 May 01:11:09 01:15:21 61° 288° (WNW) 01:19:30 145.880/145.840
POLYITAN 1 07 May 01:13:23 01:17:34 60° 288° (WNW) 01:21:42 437.675
POPSAT HIP 1 07 May 01:14:42 01:18:53 60° 288° (WNW) 01:23:02 437.405
CUSAT 1 07 May 01:17:09 01:24:19 51° 71° (ENE) 01:32:09 437.405
ESTCUBE 1 07 May 01:17:14 01:19:01 12° 273° (W) 01:20:48 437.505/2401.250
QB50P1 07 May 01:17:29 01:21:39 55° 288° (WNW) 01:25:46 145.935-145.965
UKube-1 07 May 01:20:16 01:23:14 18° 269° (W) 01:26:13 .
DX 1 07 May 01:23:06 01:25:34 15° 271° (W) 01:28:02 434.975-435.025
BUGSAT 1 07 May 01:26:36 01:30:50 86° 108° (ESE) 01:34:58 437.445
Cosmos 2499 07 May 01:30:28 01:37:29 78° 97° (E) 01:44:43 435.465 / 435.565
UNISAT 6 07 May 01:31:16 01:32:56 12° 304° (NW) 01:34:36 437.425
BEESAT 07 May 01:31:32 01:35:34 28° 63° (ENE) 01:39:37 436.000
SPROUT 07 May 01:41:08 01:44:22 20° 268° (W) 01:47:37 437.525
NANOSAT C BR1 07 May 01:50:03 01:53:42 28° 294° (WNW) 01:57:18 145.865
TISAT 1 07 May 01:56:40 02:00:40 39° 262° (W) 02:04:42 437.305
AIST 1 07 May 02:05:53 02:08:30 15° 296° (WNW) 02:11:08
BEESAT 3 07 May 02:08:38 02:12:38 78° 51° (NE) 02:16:34 437.485
JAS-2 07 May 02:12:50 02:20:40 69° 101° (ESE) 02:28:25 435.910
Oscar 19 07 May 02:19:52 02:24:51 43° 98° (E) 02:29:46 437.125/150
KKS-1 07 May 02:22:48 02:25:03 14° 56° (ENE) 02:27:17 437.445
BEESAT 2 07 May 02:25:00 02:29:01 70° 50° (NE) 02:32:59 435.950
ITUPSAT 1 07 May 02:28:48 02:33:34 86° 73° (ENE) 02:38:22 437.325
SWISSCUBE 07 May 02:35:42 02:40:27 74° 257° (WSW) 02:45:13 437.505
DANDE 07 May 02:41:41 02:48:30 89° 262° (W) 02:56:44 436.750
DUCHIFAT 1 07 May 02:42:07 02:43:23 11° 304° (NW) 02:44:39 145.980
GONETS M04 07 May 02:43:42 02:51:16 31° 298° (WNW) 02:58:51
Gurwin Techsat 1B 07 May 02:51:54 02:56:50 37° 96° (E) 03:01:44 435.225
AIST 2 07 May 02:57:36 03:00:48 21° 33° (NNE) 03:03:58 435.215
MOZHAYETS 4 07 May 02:58:51 03:02:03 19° 61° (ENE) 03:05:15
CUSAT 1 07 May 02:59:29 03:06:25 43° 269° (W) 03:13:52 437.405
BUGSAT 1 07 May 03:03:47 03:05:34 12° 303° (WNW) 03:07:19 437.445
BEESAT 07 May 03:08:44 03:13:12 41° 262° (W) 03:17:43 436.000
YUBILEINY 07 May 03:11:43 03:13:20 11° 40° (NE) 03:14:57 435.215
RS-15 07 May 03:12:51 03:23:54 39° 14° (NNE) 03:35:13 29.354- 29.394
Cosmos 2499 07 May 03:26:04 03:31:32 23° 300° (WNW) 03:37:08 435.465 / 435.565
BEESAT 3 07 May 03:47:54 03:49:47 13° 249° (WSW) 03:51:38 437.485
ITAMSAT 1 07 May 03:48:42 03:53:44 48° 99° (E) 03:58:45 435.822/435.867
AO-7 07 May 03:52:54 03:59:38 26° 92° (E) 04:06:19 29.400- 29.500
KKS-1 07 May 03:56:28 04:00:58 88° 258° (WSW) 04:05:30 437.445
JAS-2 07 May 03:58:23 04:05:10 34° 301° (WNW) 04:11:58 435.910
Oscar 19 07 May 03:59:30 04:04:01 31° 297° (WNW) 04:08:30 437.125/150
STARS 07 May 04:00:18 04:04:39 56° 71° (ENE) 04:09:01 437.465
BEESAT 2 07 May 04:04:04 04:06:22 15° 248° (WSW) 04:08:40 435.950
ITUPSAT 1 07 May 04:09:57 04:12:04 13° 273° (W) 04:14:12 437.325
DANDE 07 May 04:25:46 04:30:48 21° 275° (W) 04:36:25 436.750
Gurwin Techsat 1B 07 May 04:31:56 04:36:47 37° 295° (WNW) 04:41:36 435.225
MOZHAYETS 4 07 May 04:34:18 04:38:48 60° 259° (W) 04:43:20
AIST 2 07 May 04:35:36 04:39:46 78° 234° (SW) 04:43:54 435.215
CUBESAT XI-V 07 May 04:55:52 04:59:56 32° 66° (ENE) 05:04:02 437.345
YUBILEINY 07 May 05:05:04 05:13:15 42° 68° (ENE) 05:21:23 435.215
HORYU 2 07 May 05:11:35 05:15:07 23° 94° (E) 05:18:37 437.375
SO-50 07 May 05:19:03 05:19:50 10° 106° (ESE) 05:20:37 436.795
RS-15 07 May 05:26:44 05:38:58 70° 44° (NE) 05:51:19 29.354- 29.394
ITAMSAT 1 07 May 05:28:37 05:32:59 28° 298° (WNW) 05:37:20 435.822/435.867
Cosmos 2504 07 May 05:32:43 05:37:40 18° 56° (NE) 05:42:47 435.465 / 435.565
KKS-1 07 May 05:37:02 05:38:13 11° 273° (W) 05:39:25 437.445
STARS 07 May 05:38:20 05:41:22 18° 269° (W) 05:44:25 437.465
AO-7 07 May 05:44:56 05:53:17 81° 293° (WNW) 06:01:39 29.400- 29.500
Cosmos 2491 07 May 05:55:50 06:03:33 36° 83° (E) 06:11:15 435.465 / 435.565
ISS 07 May 06:00:37 06:02:58 18° 139° (SE) 06:05:18 145.825
NOAA 15 07 May 06:18:59 06:23:10 23° 92° (E) 06:27:17 137.62
STRAND 1 07 May 06:32:55 06:37:24 32° 64° (ENE) 06:41:54 437.568
CUBESAT XI-V 07 May 06:33:06 06:37:17 34° 264° (W) 06:41:31 437.345
GOMX 1 07 May 06:33:34 06:35:35 12° 83° (E) 06:37:34 467.674
Cubesat XI-IV 07 May 06:38:30 06:42:41 23° 92° (E) 06:46:51 437.490
NOAA 18 07 May 06:46:08 06:51:02 33° 96° (E) 06:55:53 137.9125
HORYU 2 07 May 06:47:40 06:51:52 43° 292° (WNW) 06:56:02 437.375
SO-50 07 May 06:54:33 06:59:25 66° 124° (SE) 07:04:18 436.795
YUBILEINY 07 May 07:01:57 07:10:17 53° 271° (W) 07:18:37 435.215
BRITE-PL 07 May 07:22:24 07:28:05 60° 100° (E) 07:33:34 437.365/2234.400
PRISM 07 May 07:23:01 07:25:51 18° 61° (ENE) 07:28:42 437.425
LilacSat-2 07 May 07:24:30 07:28:15 53° 100° (E) 07:31:56 437.200
Cosmos 2504 07 May 07:24:47 07:32:26 74° 78° (ENE) 07:40:39 435.465 / 435.565
CUTE-I 07 May 07:31:46 07:37:04 62° 102° (ESE) 07:42:21 437.470
ISS 07 May 07:35:48 07:39:03 86° 158° (SSE) 07:42:21 145.825
AO-7 07 May 07:38:39 07:44:58 25° 314° (NW) 07:51:17 29.400- 29.500
RS-15 07 May 07:39:43 07:51:03 47° 249° (WSW) 08:02:24 29.354- 29.394
DOVE 4 07 May 07:41:08 07:45:10 23° 90° (E) 07:49:01 437.250
Cosmos 2491 07 May 07:51:12 07:59:55 62° 285° (WNW) 08:08:43 435.465 / 435.565
NOAA 15 07 May 07:58:04 08:03:18 59° 291° (WNW) 08:08:32 137.62
CANX-2 07 May 08:00:24 08:01:22 11° 86° (E) 08:02:20 2200.000
GOMX 1 07 May 08:09:09 08:14:37 77° 102° (ESE) 08:19:47 467.674
M-CUBED/EXP-1 PRIME 07 May 08:10:59 08:14:24 29° 101° (E) 08:17:34 437.505
STRAND 1 07 May 08:11:43 08:16:29 39° 262° (W) 08:21:17 437.568
Cubesat XI-IV 07 May 08:17:55 08:23:09 58° 290° (WNW) 08:28:22 437.490
AUBIESAT-1 07 May 08:25:09 08:28:40 34° 102° (ESE) 08:31:56 437.475
NOAA 18 07 May 08:26:40 08:31:48 43° 295° (WNW) 08:36:54 137.9125
CUTE 1.7 + AOD 2 07 May 08:30:27 08:33:33 20° 92° (E) 08:36:38 437.475
SO-50 07 May 08:36:02 08:40:19 29° 325° (NW) 08:44:35 436.795
HO-68 07 May 08:42:16 08:48:43 35° 95° (E) 08:55:08 435.675
COMPASS 1 07 May 08:43:20 08:45:41 15° 89° (E) 08:48:01 437.405
SEEDS 07 May 08:48:29 08:51:47 22° 93° (E) 08:55:06 437.485
PHONESAT 2.4 07 May 08:48:44 08:49:36 11° 160° (SSE) 08:50:30 2401.200-2431.200
GONETS M04 07 May 08:56:16 08:59:03 12° 42° (NE) 09:01:49
PRISM 07 May 08:56:50 09:00:49 52° 260° (W) 09:04:52 437.425
LilacSat-2 07 May 08:59:53 09:02:10 15° 298° (WNW) 09:04:27 437.200
BRITE-PL 07 May 09:01:28 09:06:08 27° 299° (WNW) 09:10:43 437.365/2234.400
YUBILEINY 07 May 09:03:27 09:04:53 10° 293° (WNW) 09:06:19 435.215
AAUSAT CUBESAT 2 07 May 09:08:31 09:11:44 21° 92° (E) 09:14:56 437.432
ISS 07 May 09:12:32 09:15:43 46° 357° (N) 09:18:53 145.825
CUTE-I 07 May 09:12:36 09:16:43 23° 301° (WNW) 09:20:50 437.470
DOVE 4 07 May 09:18:15 09:23:12 51° 290° (WNW) 09:27:51 437.250
Cosmos 2504 07 May 09:19:08 09:25:09 26° 278° (W) 09:31:30 435.465 / 435.565
UNISAT 6 07 May 09:19:51 09:22:54 18° 60° (ENE) 09:25:55 437.425
UWE-3 07 May 09:21:11 09:23:47 16° 89° (E) 09:26:22 435.000/436.395/437.385
CINEMA 3 07 May 09:24:57 09:29:34 71° 102° (ESE) 09:33:56 145.822/145.860
CANX-2 07 May 09:33:35 09:37:50 86° 285° (WNW) 09:42:05 2200.000
TIGRISAT 07 May 09:34:59 09:38:32 23° 63° (ENE) 09:42:04 435.000
CUBEBUG 2 07 May 09:38:30 09:42:23 32° 96° (E) 09:46:09 437.445
ZACube-1 07 May 09:40:17 09:43:02 17° 90° (E) 09:45:46 437.345
NOAA 15 07 May 09:40:23 09:42:02 11° 310° (NW) 09:43:41 137.62
M-CUBED/EXP-1 PRIME 07 May 09:45:37 09:48:55 26° 301° (WNW) 09:51:59 437.505
GOMX 1 07 May 09:48:15 09:52:02 20° 302° (WNW) 09:55:44 467.674
Cosmos 2491 07 May 09:53:48 09:59:00 16° 311° (NW) 10:04:12 435.465 / 435.565
AUBIESAT-1 07 May 09:59:58 10:03:01 23° 303° (WNW) 10:05:53 437.475
ANTELSAT 07 May 10:00:26 10:04:41 39° 69° (ENE) 10:08:53 437.575/2403.000
Cubesat XI-IV 07 May 10:00:38 10:02:09 11° 310° (NW) 10:03:41 437.490
CUTE 1.7 + AOD 2 07 May 10:05:35 10:09:38 46° 289° (WNW) 10:13:41 437.475
Oscar 11 07 May 10:11:27 10:15:32 40° 98° (E) 10:19:35 145.826/435.025
COMPASS 1 07 May 10:17:32 10:21:40 62° 287° (WNW) 10:25:47 437.405
SO-50 07 May 10:20:06 10:22:23 13° 349° (NNW) 10:24:39 436.795
PHONESAT 2.4 07 May 10:23:26 10:25:44 19° 176° (S) 10:28:03 2401.200-2431.200
SEEDS 07 May 10:23:43 10:27:40 40° 290° (WNW) 10:31:35 437.485
DUCHIFAT 1 07 May 10:25:53 10:28:22 15° 59° (ENE) 10:30:52 145.980
AIST 1 07 May 10:29:31 10:33:11 25° 69° (ENE) 10:36:50
HO-68 07 May 10:29:47 10:36:45 56° 295° (WNW) 10:43:41 435.675
FUNcube-1 07 May 10:30:25 10:34:31 51° 100° (E) 10:38:32 145.935
QB50P2 07 May 10:32:43 10:35:50 20° 62° (ENE) 10:38:57 145.880/145.840
POLYITAN 1 07 May 10:34:54 10:38:04 20° 62° (ENE) 10:41:13 437.675
POPSAT HIP 1 07 May 10:36:06 10:39:15 20° 62° (ENE) 10:42:24 437.405
QB50P1 07 May 10:38:41 10:41:57 22° 63° (ENE) 10:45:13 145.935-145.965
AO-85 07 May 10:41:27 10:42:14 10° 105° (ESE) 10:43:00 145.980
AAUSAT CUBESAT 2 07 May 10:43:29 10:47:24 41° 290° (WNW) 10:51:18 437.432
BUGSAT 1 07 May 10:46:56 10:48:57 13° 58° (ENE) 10:50:59 437.445
ISS 07 May 10:49:10 10:52:26 69° 17° (NNE) 10:55:42 145.825
JAS-2 07 May 10:49:17 10:51:43 12° 40° (NE) 10:54:13 435.910
GONETS M04 07 May 10:50:29 10:58:50 45° 69° (ENE) 11:07:05
UNISAT 6 07 May 10:54:37 10:59:11 65° 259° (WSW) 11:03:42 437.425
UWE-3 07 May 10:56:30 11:00:41 56° 288° (WNW) 11:04:44 435.000/436.395/437.385
CINEMA 3 07 May 11:03:18 11:06:08 16° 302° (WNW) 11:08:55 145.822/145.860
NANOSAT C BR1 07 May 11:09:42 11:13:40 39° 69° (ENE) 11:17:40 145.865
CANX-2 07 May 11:11:36 11:13:01 11° 303° (WNW) 11:14:27 2200.000
